Wind_Speed
5 5 5 5 6 6 6 6 6 7 6 6 6 6 6 6 6 6 6 7 7 8 7 6 5 5 5 5 6 5 5 5 5 5 5 5 6 6 5 5 5 5 5
5 5 6 5 6 6 6 7 7 8 8 8 7 8 7 7 7 7 7 7 8 7 7 7 7 6 5 5 6 6 6 6 6 6 6 6 7 7 6 6 6 6 6
5 6 6 6 5 6 6 7 7 8 8 8 8 8 8 8 8 8 8 8 8 7 7 7 7 6 6 6 6 7 7 7 7 7 7 7 7 7 7 8 8 8 8
5 6 7 7 7 7 7 7 8 8 8 9 9 9 9 8 8 8 8 9 8 8 7 7 7 7 7 6 6 7 7 6 7 8 8 8 8 8 9 9 9 9 9
6 6 7 7 7 8 8 9 9 9 8 9 9 8 8 8 8 8 8 8 8 8 8 8 8 7 7 7 6 6 7 7 8 8 8 8 9 9 10 10 10 10 10
6 6 6 7 7 7 8 9 9 9 9 9 9 8 9 9 8 8 8 8 8 8 8 8 8 8 7 7 7 7 8 8 7 8 8 8 9 10 10 10 10 10 10
5 5 6 7 7 8 8 9 9 9 9 9 9 9 9 10 9 9 9 9 9 8 8 8 9 9 8 8 8 8 8 8 8 8 8 9 10 10 10 11 11 11 11
4 5 6 6 7 8 9 9 9 9 9 9 9 9 9 10 10 10 9 9 9 9 8 9 9 9 9 9 9 9 9 9 9 10 9 9 10 11 11 12 11 11 11
4 5 5 6 7 7 8 9 9 10 10 9 9 9 10 10 10 10 10 10 9 10 10 10 9 9 9 10 10 10 10 10 10 10 10 10 11 11 12 12 11 12 12
5 5 6 6 6 7 7 8 9 9 9 9 9 9 10 10 11 10 10 10 10 10 11 10 10 10 10 10 10 10 10 10 10 11 11 11 11 11 11 11 11 12 13
5 5 5 6 6 6 6 7 8 8 9 9 9 9 9 10 11 11 10 10 10 11 10 10 9 10 10 10 10 10 10 10 11 11 11 11 11 11 11 11 11 12 13
5 5 5 6 6 6 6 6 6 7 8 8 9 9 9 10 11 11 11 11 11 11 11 10 9 10 10 10 10 10 10 10 11 11 11 11 11 11 11 11 11 11 12
5 4 4 5 5 5 5 5 6 7 7 7 8 8 8 9 10 10 10 11 11 11 11 10 10 10 10 10 10 10 10 11 11 11 11 11 11 11 11 11 11 11 12
5 4 4 5 5 5 4 5 5 6 6 6 7 7 8 8 8 9 10 11 11 11 10 10 10 10 10 10 10 10 10 11 11 11 11 11 11 11 11 11 11 12 12
5 4 4 4 4 4 4 4 5 5 6 6 7 7 8 8 8 8 9 10 11 10 10 10 10 10 9 9 10 10 10 10 10 10 10 11 10 10 11 11 11 11 11
4 4 4 4 4 4 4 4 4 5 5 6 6 6 7 8 8 8 8 9 9 10 10 10 10 10 10 10 10 9 9 9 10 9 9 9 9 10 10 10 11 11 12
4 4 4 4 4 4 3 3 4 4 5 5 5 6 6 7 7 7 8 8 8 9 9 10 9 9 9 9 9 9 9 9 9 9 9 10 10 10 11 10 10 11 11
5 5 4 4 4 4 4 4 4 3 4 4 5 5 5 5 5 6 6 7 7 8 8 9 9 8 9 9 9 9 9 9 9 10 10 10 11 11 11 10 10 10 11
5 5 5 4 4 4 5 5 4 3 3 4 4 5 5 5 5 5 6 6 6 7 7 8 8 9 9 9 9 9 10 10 10 10 10 10 10 10 10 10 10 10 10
6 6 5 5 5 5 5 5 5 4 4 4 5 5 6 5 5 6 6 6 6 7 8 8 8 9 9 9 9 10 10 10 10 10 10 10 10 10 10 10 10 10 10
7 7 6 6 6 6 6 5 5 5 5 5 5 5 6 6 6 6 6 6 6 7 7 8 8 9 9 9 9 10 10 11 11 10 11 10 11 11 11 11 11 11 11
8 8 7 7 7 7 7 7 6 6 6 5 6 7 6 7 7 7 7 6 7 7 8 8 8 9 10 10 10 10 10 11 11 11 11 11 11 11 12 12 12 12 12
9 8 8 8 8 8 8 8 8 8 7 7 7 7 8 8 8 8 8 8 8 8 8 8 8 9 9 10 10 10 10 10 11 11 12 12 12 12 12 13 13 13 13
9 9 8 8 8 8 8 8 8 8 8 8 8 8 8 9 10 10 10 9 9 9 9 9 9 9 9 10 11 11 11 11 11 12 12 12 13 13 13 13 14 14 14
9 9 9 9 9 9 8 8 8 8 8 9 9 9 9 9 10 11 10 10 10 11 10 10 10 10 11 11 11 11 11 12 12 12 13 12 13 13 14 14 15 15 15
10 10 10 10 9 9 9 9 9 9 9 10 10 10 10 10 10 10 11 11 11 11 11 11 11 12 12 12 12 12 12 13 13 13 14 14 14 14 14 15 15 16 16
Wind_Direction
247 247 247 242 240 239 239 239 235 234 234 232 231 230 230 225 227 226 223 222 215 209 209 214 216 216 217 214 211 209 210 212 217 220 224 225 226 227 228 224 218 220 225
252 250 248 241 245 244 239 239 238 236 235 235 234 235 238 237 236 233 228 225 217 213 218 220 218 220 223 227 222 219 219 221 224 228 231 230 233 231 230 232 228 230 237
254 250 245 246 249 247 242 238 239 239 239 237 236 236 238 239 237 231 228 223 220 218 220 218 219 223 227 229 224 227 227 228 228 234 234 234 235 233 233 237 236 239 241
260 255 251 250 251 249 243 242 241 242 240 237 235 235 236 236 230 230 227 223 222 221 220 219 223 227 230 231 229 229 226 231 235 239 235 234 237 237 238 241 240 240 242
260 258 257 255 254 252 248 247 245 245 242 237 238 237 234 232 229 228 225 224 223 222 222 222 224 225 227 229 230 228 231 239 241 238 237 239 239 241 244 244 246 245 244
260 258 260 261 257 254 253 250 250 247 243 242 241 238 234 230 225 222 225 224 226 225 226 227 228 227 231 235 236 237 240 244 239 237 239 241 243 244 244 248 250 249 246
268 262 263 264 262 259 256 253 249 247 245 243 242 239 233 229 228 222 223 225 226 223 229 231 229 230 234 237 238 241 240 240 241 242 244 244 245 245 248 254 253 255 252
277 272 273 270 267 263 260 255 250 245 243 242 242 237 236 233 229 224 226 226 228 230 232 232 232 232 239 241 244 244 245 244 248 248 248 248 248 250 254 255 255 260 259
280 279 279 276 271 268 262 256 251 245 243 241 241 237 232 231 232 228 228 228 231 236 236 236 236 238 242 246 247 249 250 249 248 250 250 251 252 252 254 255 256 259 263
285 285 284 279 275 272 265 259 252 246 243 241 240 238 232 231 233 235 232 231 233 236 238 238 238 238 242 245 247 251 251 248 247 252 253 254 253 252 254 255 257 260 262
296 291 290 286 278 273 268 263 254 246 242 240 238 236 235 235 233 235 235 236 237 238 238 238 238 241 243 248 250 248 248 247 248 252 252 253 252 252 256 254 258 259 259
306 295 290 291 286 275 268 264 256 245 241 240 240 240 241 239 238 239 239 238 239 239 238 240 241 242 244 248 248 248 251 250 249 249 248 249 250 252 255 255 259 260 259
316 303 294 297 294 286 274 264 256 247 243 242 242 243 244 244 243 242 244 243 242 243 244 245 244 248 247 248 247 249 253 253 254 250 250 249 250 252 256 257 259 261 263
326 314 306 304 301 296 285 268 261 254 246 239 239 240 244 247 245 243 246 246 244 244 245 246 247 252 254 251 248 251 255 256 257 254 253 254 254 255 258 259 260 262 265
340 331 318 313 308 304 293 276 263 253 244 248 251 246 247 250 247 249 247 246 245 245 246 245 248 253 253 249 248 252 255 256 256 256 252 254 256 259 261 263 264 266 269
354 347 337 329 318 310 298 276 260 257 251 250 251 250 249 249 247 248 246 245 244 244 244 245 249 255 254 254 252 252 252 253 256 257 254 256 257 258 261 264 266 268 271
356 352 344 337 325 313 302 289 270 263 257 250 249 249 249 247 248 245 244 243 243 246 248 248 250 253 255 255 256 252 252 254 256 257 256 259 259 261 263 265 270 273 275
347 345 336 329 323 314 304 298 290 276 261 252 250 250 249 246 243 247 245 241 244 248 250 251 249 251 253 257 254 250 252 254 260 259 257 260 263 264 265 268 271 273 276
334 333 327 321 315 308 300 292 287 278 267 258 259 255 250 246 246 247 246 244 248 248 248 253 252 250 255 256 250 252 254 256 261 261 261 261 262 262 264 267 270 273 275
324 326 322 315 314 310 300 294 280 276 272 265 262 257 252 249 249 249 246 251 252 248 248 254 255 253 255 253 251 252 254 258 263 263 264 263 260 261 262 263 266 271 274
316 315 311 306 304 301 294 289 280 279 276 271 265 257 255 252 252 253 253 253 252 252 255 258 256 254 253 250 251 253 257 261 264 263 263 265 264 264 264 266 268 269 271
308 306 302 300 297 294 290 282 281 280 279 278 274 266 263 259 257 259 254 250 252 257 257 258 254 252 249 251 253 255 259 261 261 264 265 265 267 267 266 268 270 270 270
305 304 301 299 295 290 285 279 279 276 276 278 278 272 267 264 261 261 254 255 258 260 258 258 258 256 252 254 257 258 258 261 266 265 265 265 268 270 270 272 274 273 272
303 303 299 297 294 290 285 278 275 275 275 276 279 275 268 263 263 266 261 260 260 260 261 261 261 259 258 258 259 259 262 264 264 266 267 266 267 269 270 273 276 277 277
299 300 297 297 292 288 284 279 275 274 272 273 276 276 272 267 266 265 263 265 264 262 260 258 261 260 260 263 263 263 262 262 263 265 266 267 269 269 270 272 275 277 278
295 296 296 294 292 287 283 280 276 274 273 274 274 274 273 270 267 265 265 269 270 266 265 263 262 260 262 263 262 263 265 265 266 266 265 265 268 272 275 275 276 279 280
Height
5881 5880 5880 5880 5880 5880 5880 5880 5881 5880 5881 5881 5881 5881 5880 5881 5881 5881 5881 5881 5882 5882 5883 5883 5884 5884 5884 5884 5885 5885 5886 5886 5886 5887 5887 5887 5888 5888 5888 5888 5889 5889 5889
5879 5879 5879 5879 5879 5879 5879 5879 5879 5879 5879 5879 5879 5880 5879 5879 5879 5879 5880 5880 5881 5881 5882 5882 5882 5883 5883 5883 5884 5884 5885 5885 5886 5886 5886 5887 5887 5887 5888 5888 5888 5888 5888
5878 5877 5878 5877 5877 5877 5878 5878 5878 5878 5878 5878 5878 5878 5878 5878 5878 5878 5878 5879 5880 5880 5881 5881 5881 5882 5882 5883 5883 5883 5884 5884 5885 5885 5886 5886 5886 5886 5887 5887 5887 5887 5887
5876 5876 5876 5876 5876 5876 5876 5876 5876 5876 5876 5876 5876 5876 5876 5876 5876 5876 5877 5878 5878 5879 5880 5880 5881 5881 5882 5882 5882 5882 5883 5883 5884 5884 5885 5885 5885 5885 5886 5886 5886 5886 5886
5875 5875 5875 5875 5875 5875 5875 5875 5875 5875 5875 5875 5875 5874 5874 5875 5875 5875 5876 5877 5877 5878 5879 5879 5880 5880 5880 5881 5881 5881 5882 5882 5883 5883 5884 5884 5884 5884 5884 5884 5884 5884 5884
5874 5873 5873 5873 5873 5873 5873 5873 5873 5873 5873 5873 5873 5873 5873 5873 5873 5874 5874 5875 5876 5877 5877 5878 5878 5879 5879 5880 5880 5880 5881 5881 5881 5882 5882 5882 5882 5882 5883 5883 5883 5883 5883
5872 5872 5872 5871 5871 5871 5871 5871 5871 5871 5871 5871 5871 5871 5871 5872 5872 5872 5873 5873 5874 5875 5876 5877 5877 5878 5878 5879 5879 5879 5880 5880 5880 5880 5881 5881 5881 5881 5881 5881 5881 5881 5881
5871 5870 5870 5870 5870 5869 5869 5869 5870 5870 5870 5870 5869 5870 5870 5870 5871 5871 5872 5872 5873 5874 5875 5875 5875 5876 5876 5877 5877 5878 5878 5879 5879 5879 5879 5879 5879 5879 5880 5879 5880 5879 5879
5870 5869 5869 5869 5868 5868 5868 5867 5868 5868 5868 5868 5868 5868 5869 5869 5869 5870 5871 5871 5872 5872 5873 5873 5873 5874 5875 5875 5876 5876 5876 5877 5877 5877 5877 5877 5877 5878 5878 5877 5878 5878 5878
5869 5868 5868 5867 5867 5866 5866 5866 5866 5866 5866 5866 5866 5867 5867 5868 5868 5868 5869 5870 5870 5871 5871 5871 5872 5872 5873 5873 5874 5874 5874 5875 5875 5875 5875 5875 5875 5875 5875 5875 5875 5875 5875
5868 5867 5866 5866 5865 5865 5865 5864 5864 5864 5865 5865 5865 5865 5866 5866 5866 5867 5868 5868 5869 5869 5869 5870 5870 5871 5871 5872 5872 5872 5872 5873 5873 5873 5873 5873 5873 5873 5873 5873 5873 5873 5873
5867 5866 5865 5865 5864 5864 5863 5863 5863 5863 5863 5863 5863 5863 5864 5864 5864 5865 5866 5866 5867 5867 5868 5868 5869 5869 5869 5870 5870 5870 5870 5870 5871 5871 5871 5871 5871 5871 5871 5871 5871 5871 5871
5866 5865 5864 5863 5863 5862 5862 5861 5861 5861 5861 5862 5862 5862 5862 5863 5863 5863 5864 5865 5865 5865 5866 5866 5867 5867 5867 5868 5868 5868 5868 5868 5868 5869 5869 5869 5869 5869 5869 5869 5869 5869 5869
5865 5864 5863 5862 5862 5861 5861 5860 5860 5860 5860 5860 5860 5861 5861 5861 5862 5862 5862 5863 5863 5863 5864 5864 5865 5865 5865 5865 5865 5866 5866 5866 5866 5866 5866 5866 5866 5867 5867 5866 5866 5866 5866
5864 5863 5862 5862 5861 5860 5860 5859 5859 5859 5859 5859 5859 5859 5860 5860 5860 5860 5860 5861 5861 5862 5862 5863 5863 5863 5863 5863 5864 5864 5864 5864 5864 5864 5864 5864 5864 5864 5864 5864 5864 5864 5864
5864 5863 5862 5861 5861 5860 5859 5858 5858 5858 5858 5858 5858 5858 5858 5858 5858 5859 5859 5859 5860 5860 5860 5861 5861 5861 5861 5861 5862 5862 5862 5862 5862 5862 5862 5862 5862 5862 5862 5862 5862 5861 5861
5864 5863 5862 5861 5860 5859 5858 5858 5857 5857 5857 5857 5857 5857 5857 5857 5857 5857 5857 5858 5858 5858 5858 5859 5859 5859 5859 5860 5860 5860 5860 5860 5860 5860 5860 5860 5860 5860 5860 5859 5859 5859 5858
5864 5863 5862 5861 5860 5859 5858 5857 5857 5856 5856 5856 5856 5856 5856 5855 5855 5856 5856 5856 5856 5856 5857 5857 5857 5858 5858 5857 5857 5858 5858 5858 5858 5858 5858 5858 5858 5857 5857 5857 5857 5856 5856
5863 5862 5861 5860 5859 5858 5857 5856 5856 5855 5855 5855 5855 5855 5854 5854 5854 5854 5854 5854 5855 5855 5855 5855 5855 5855 5855 5855 5855 5855 5856 5856 5856 5856 5856 5855 5855 5855 5855 5854 5854 5854 5853
5862 5861 5860 5859 5858 5857 5856 5855 5855 5855 5854 5854 5853 5853 5853 5853 5853 5853 5853 5853 5853 5853 5853 5853 5853 5853 5853 5853 5853 5853 5853 5853 5853 5853 5853 5853 5853 5853 5852 5852 5851 5851 5851
5862 5860 5859 5858 5857 5856 5855 5854 5854 5854 5853 5852 5852 5852 5852 5852 5852 5852 5851 5851 5851 5851 5852 5851 5851 5851 5851 5851 5851 5851 5851 5851 5851 5851 5851 5851 5850 5850 5849 5849 5849 5848 5848
5860 5859 5858 5856 5855 5855 5854 5853 5852 5852 5851 5851 5851 5851 5850 5850 5850 5850 5850 5850 5850 5850 5850 5849 5849 5848 5848 5848 5849 5849 5849 5849 5848 5848 5848 5848 5847 5847 5847 5846 5846 5845 5845
5859 5857 5856 5855 5854 5853 5852 5851 5851 5850 5850 5849 5849 5849 5848 5848 5848 5848 5848 5848 5847 5847 5847 5847 5847 5846 5846 5846 5846 5847 5847 5846 5846 5846 5845 5845 5844 5844 5844 5843 5842 5842 5841
5857 5856 5854 5853 5852 5851 5850 5850 5849 5849 5848 5848 5847 5847 5846 5846 5846 5845 5845 5845 5845 5845 5844 5844 5844 5844 5844 5844 5844 5844 5844 5843 5843 5843 5843 5842 5841 5841 5840 5840 5839 5838 5838
5855 5854 5853 5851 5850 5849 5848 5848 5847 5847 5846 5846 5845 5845 5844 5843 5843 5843 5842 5842 5842 5842 5842 5841 5841 5841 5841 5841 5841 5841 5840 5840 5840 5840 5839 5839 5838 5838 5837 5836 5836 5835 5834
5853 5852 5851 5850 5848 5847 5846 5846 5845 5845 5844 5843 5843 5842 5842 5841 5841 5840 5840 5839 5839 5839 5838 5838 5838 5838 5838 5838 5837 5837 5837 5837 5836 5836 5836 5835 5835 5834 5833 5833 5832 5831 5830